GW2438 Weather Reports


time (UTC)temp
F
wind
direction
speed
knots
gust
knots
rain 1hr
in
rain 24hr
in
rain mn
in
humidity
%
barometer
mb
20260503210518 74 5 3.5 7.8 0.00 0.00 0.00 47 1012.1
20260503205516 74 359 2.6 7.0 0.00 0.00 0.00 46 1012.1
20260503204614 74 357 2.6 7.8 0.00 0.00 0.00 48 1012.2
20260503203612 73 4 3.5 6.1 0.00 0.00 0.00 48 1012.5
20260503202611 73 320 2.6 5.2 0.00 0.00 0.00 48 1012.6
20260503201609 73 357 3.5 7.0 0.00 0.00 0.00 48 1012.6
20260503200608 72 15 3.5 7.8 0.00 0.00 0.00 51 1012.8
20260503195606 72 332 2.6 5.2 0.00 0.00 0.00 51 1012.9
20260503194604 72 11 3.5 6.1 0.00 0.00 0.00 53 1012.9
20260503193622 71 342 0.9 2.6 0.00 0.00 0.00 54 1013.1
20260503192601 71 3 2.6 5.2 0.00 0.00 0.00 54 1013.2
20260503191619 71 12 2.6 5.2 0.00 0.00 0.00 55 1013.3
20260503190557 70 349 1.7 5.2 0.00 0.00 0.00 56 1013.4
20260503185555 70 342 2.6 5.2 0.00 0.00 0.00 54 1013.4
20260503184554 70 356 4.3 5.2 0.00 0.00 0.00 55 1013.5
20260503183552 70 339 2.6 6.1 0.00 0.00 0.00 56 1013.6
20260503182550 70 10 2.6 7.0 0.00 0.00 0.00 56 1013.7
20260503181549 70 357 1.7 3.5 0.00 0.00 0.00 57 1013.8
20260503180547 69 29 1.7 3.5 0.00 0.00 0.00 58 1013.8
20260503175605 68 347 2.6 6.1 0.00 0.00 0.00 58 1013.9
20260503174543 68 13 2.6 5.2 0.00 0.00 0.00 58 1014.1
20260503173541 68 7 3.5 7.0 0.00 0.00 0.00 59 1013.9
20260503172540 67 355 1.7 3.5 0.00 0.00 0.00 59 1014.0
20260503171538 66 3 2.6 5.2 0.00 0.00 0.00 60 1014.1
20260503170536 66 359 3.5 6.1 0.00 0.00 0.00 59 1014.1
20260503150616 77 18 0.9 1.7 0.00 0.00 0.00 51 1014.2
20260503130554 52 0.0 0.0 0.00 0.00 0.00 83 1014.1
20260503110554 55 0.0 0.0 0.00 0.00 0.00 76 1014.1
20260503081604 62 0.0 0.0 0.00 0.00 0.00 56 1014.6
20260503080602 62 119 0.9 0.9 0.00 0.00 0.00 55 1014.4
20260503072555 66 107 0.0 0.9 0.00 0.00 0.00 49 1014.3
20260503071554 66 44 1.7 5.2 0.00 0.00 0.00 48 1014.4
20260503070555 66 78 0.9 1.7 0.00 0.00 0.00 48 1014.5
20260503054538 66 18 0.0 1.7 0.00 0.00 0.00 51 1014.2
20260503053557 66 76 0.0 2.6 0.00 0.00 0.00 52 1014.2
20260503052534 66 22 0.9 2.6 0.00 0.00 0.00 52 1014.2
20260503051533 66 61 0.0 1.7 0.00 0.00 0.00 53 1014.2
20260503050531 66 0.0 0.0 0.00 0.00 0.00 53 1014.2
20260503045529 66 25 0.9 2.6 0.00 0.00 0.00 54 1014.1
20260503044608 66 11 0.9 2.6 0.00 0.00 0.00 54 1014.1
20260503043526 67 15 0.9 2.6 0.00 0.00 0.00 54 1014.1
20260503042524 67 7 0.0 0.9 0.00 0.00 0.00 54 1013.8
20260503041543 67 13 0.9 2.6 0.00 0.00 0.00 54 1013.8
20260503040541 66 18 0.9 2.6 0.00 0.00 0.00 56 1013.6
20260503035519 66 352 0.9 1.7 0.00 0.00 0.00 58 1013.4
20260503034517 66 349 0.0 0.9 0.00 0.00 0.00 57 1013.4
20260503033516 66 339 0.9 2.6 0.00 0.00 0.00 57 1013.2
20260503032614 66 334 0.9 1.7 0.00 0.00 0.00 56 1013.0
20260503031613 67 352 1.7 3.5 0.00 0.00 0.00 55 1013.0
20260503030630 67 355 0.9 2.6 0.00 0.00 0.00 54 1013.0
20260503025609 67 316 0.9 3.5 0.00 0.00 0.00 53 1012.8
20260503024627 68 348 2.6 7.0 0.00 0.00 0.00 52 1012.9
20260503023606 69 343 2.6 7.0 0.00 0.00 0.00 52 1012.8
20260503022624 69 343 2.6 6.1 0.00 0.00 0.00 51 1012.8
20260503021602 70 329 2.6 6.1 0.00 0.00 0.00 49 1012.7
20260503020600 70 334 3.5 7.8 0.00 0.00 0.00 48 1012.8
20260503015558 70 307 3.5 6.1 0.00 0.00 0.00 49 1012.7
20260503014556 70 346 3.5 6.1 0.00 0.00 0.00 50 1012.8
20260503013615 70 354 2.6 5.2 0.00 0.00 0.00 49 1012.8
20260503012553 70 2 4.3 7.8 0.00 0.00 0.00 49 1012.9
20260503011552 70 353 3.5 7.0 0.00 0.00 0.00 49 1013.0
20260503010550 71 355 2.6 5.2 0.00 0.00 0.00 49 1012.9
20260503005548 71 4 3.5 5.2 0.00 0.00 0.00 49 1013.0
20260503004546 71 1 3.5 6.1 0.00 0.00 0.00 49 1013.2
20260503003545 71 356 2.6 5.2 0.00 0.00 0.00 49 1013.3
20260503002543 71 346 2.6 7.0 0.00 0.00 0.00 49 1013.3
20260503001541 71 347 3.5 6.1 0.00 0.00 0.00 49 1013.3
20260503000540 71 346 4.3 8.7 0.00 0.00 0.00 49 1013.3
20260502235538 71 353 5.2 11.3 0.00 0.00 0.00 48 1013.3
20260502234617 71 345 5.2 11.3 0.00 0.00 0.00 47 1013.4
20260502233534 71 4 6.1 11.3 0.00 0.00 0.00 46 1013.7
20260502232536 71 13 5.2 8.7 0.00 0.00 0.00 48 1013.7
20260502231531 71 342 3.5 7.0 0.00 0.00 0.00 50 1014.0
20260502230550 70 5 4.3 7.8 0.00 0.00 0.00 51 1014.0
20260502225528 70 357 5.2 12.2 0.00 0.00 0.00 51 1014.2
20260502224526 70 351 3.5 7.8 0.00 0.00 0.00 54 1014.4
20260502223544 70 354 5.2 7.0 0.00 0.00 0.00 54 1014.5
20260502222522 69 356 3.5 6.1 0.00 0.00 0.00 55 1014.6
20260502221521 69 345 3.5 8.7 0.00 0.00 0.00 56 1014.7
20260502220540 69 358 3.5 6.1 0.00 0.00 0.00 56 1014.8
20260502215517 69 5 3.5 11.3 0.00 0.00 0.00 55 1014.8
20260502214616 69 345 4.3 7.0 0.00 0.00 0.00 54 1015.0
20260502213614 69 338 4.3 9.6 0.00 0.00 0.00 56 1015.1
20260502212612 69 350 4.3 9.6 0.00 0.00 0.00 57 1015.1
20260502211611 68 7 4.3 7.8 0.00 0.00 0.00 59 1015.3